Temp
8 8 8 9 9 9 10 10 11 11 11 11 11 11 11 12 12 12 13 13 12 11 11 10 10 10 9 9 9 9 10 11 12 11 12 11 11 10 11 10 10 10 9 8 8
8 8 9 9 9 9 9 10 10 11 11 11 11 10 11 11 12 12 13 12 12 11 11 10 10 10 9 9 8 9 10 11 11 11 11 11 11 11 10 10 10 10 9 8 8
8 9 9 8 8 9 9 10 10 11 11 11 11 10 11 11 11 13 12 13 12 11 11 10 10 9 9 9 9 9 10 11 11 11 11 11 11 10 10 10 9 9 8 8 8
9 8 9 9 9 9 10 10 9 9 10 10 10 10 10 10 10 12 12 12 12 11 11 11 10 9 9 9 9 9 10 10 10 10 11 11 11 11 11 10 10 9 9 9 8
8 8 8 8 9 9 9 9 9 9 10 10 10 10 10 10 11 10 11 11 11 12 12 11 10 9 9 9 10 9 10 10 10 10 11 11 10 10 10 10 10 10 9 9 9
8 8 8 8 8 8 8 8 8 9 9 9 9 9 9 10 10 9 10 10 11 11 11 11 9 9 10 10 10 10 10 10 10 10 10 10 10 10 10 10 10 10 9 9 9
6 7 8 8 8 8 8 9 9 9 9 8 8 8 9 11 10 9 10 10 10 10 11 10 8 9 9 9 9 9 9 10 10 10 10 10 10 10 10 10 10 10 9 9 9
6 6 7 7 7 8 8 8 8 8 8 8 8 8 9 11 9 10 10 10 10 9 10 10 9 8 9 10 9 9 10 11 11 10 10 9 10 10 10 10 10 10 10 9 9
7 7 7 7 7 7 7 7 7 7 7 7 7 7 9 10 10 10 9 10 9 9 9 9 9 8 8 9 10 10 11 12 12 10 10 9 10 10 10 10 10 10 10 10 10
6 6 6 6 6 6 7 7 7 7 7 7 7 7 8 10 11 10 10 10 9 9 8 9 8 8 9 10 11 12 11 12 11 11 9 10 10 10 9 10 10 10 11 10 10
5 6 6 6 6 6 6 6 6 6 7 7 8 8 8 9 9 10 10 10 9 9 8 9 9 9 10 10 11 11 11 11 11 10 9 10 10 10 10 10 10 10 11 10 10
5 5 5 6 5 5 5 5 5 5 6 7 7 8 7 8 9 9 9 9 9 8 8 8 9 10 10 10 10 10 10 11 11 10 9 10 10 10 10 10 10 11 11 10 10
3 4 4 4 5 5 4 4 4 4 4 7 7 7 8 7 8 9 9 9 9 8 9 10 10 10 10 10 9 10 10 10 10 10 9 10 10 11 10 10 10 11 11 10 10
1 1 2 3 3 4 3 4 3 3 3 6 8 10 9 7 7 8 9 9 8 9 10 10 11 10 9 10 9 10 10 9 10 9 11 10 11 11 11 11 10 10 11 10 10
-3 -1 -0 1 2 2 2 2 2 2 6 8 7 7 9 9 9 10 9 7 8 9 10 10 11 9 9 10 10 10 10 9 9 9 10 10 11 11 11 11 11 11 10 10 10
-3 -3 -2 -2 -1 0 0 1 1 1 6 6 8 8 8 8 7 8 9 7 7 9 9 10 10 9 10 10 9 9 9 9 9 9 11 11 11 12 12 11 11 11 10 10 10
-3 -4 -4 -4 -4 -2 -2 -1 -1 3 7 7 6 6 7 9 6 7 7 6 8 8 9 9 9 9 9 10 9 9 9 10 11 11 12 10 10 11 11 11 11 10 10 10 9
-4 -5 -4 -4 -6 -4 -4 -4 1 4 6 7 7 6 7 7 7 7 7 7 8 9 10 10 10 9 9 10 9 9 10 11 11 12 13 10 11 12 11 11 11 10 10 10 9
-6 -6 -6 -7 -7 -6 -6 -5 1 4 6 6 6 7 7 7 8 7 8 8 8 9 11 11 11 10 9 9 10 10 9 10 10 11 11 12 12 11 11 11 11 10 10 10 9
-7 -8 -7 -8 -8 -8 -7 -5 -0 3 4 6 6 7 8 7 7 8 8 9 9 9 10 10 11 10 9 9 10 10 9 9 9 11 11 12 12 12 12 11 10 10 10 9 9
-8 -8 -7 -8 -8 -7 -7 -5 -3 2 2 3 5 7 8 8 8 8 10 9 9 9 9 10 10 10 9 9 10 9 9 9 10 11 12 12 13 11 11 10 10 10 10 9 9
-9 -8 -7 -8 -8 -8 -7 -4 -4 -2 -1 0 2 5 7 8 8 9 9 9 9 9 8 9 9 9 9 10 10 10 10 9 10 10 10 11 12 11 11 10 10 10 10 10 9
-8 -8 -8 -8 -8 -7 -6 -6 -5 -4 -4 -2 0 3 5 7 8 8 8 8 8 9 8 8 9 9 10 8 9 10 10 10 9 10 11 12 12 11 10 10 10 10 10 10 9
-9 -9 -8 -8 -8 -8 -7 -7 -6 -5 -5 -5 -3 0 2 5 7 8 8 8 8 8 8 8 9 9 11 10 9 9 9 10 10 10 10 11 11 11 11 10 10 10 10 10 9
-9 -9 -9 -8 -8 -8 -8 -7 -7 -6 -6 -5 -3 -1 2 4 6 7 7 7 7 8 8 8 8 9 10 11 10 9 9 10 9 10 10 11 11 11 11 11 10 10 10 9 9
-9 -9 -9 -8 -8 -8 -8 -7 -7 -6 -7 -4 -4 -2 -0 2 5 6 7 7 7 8 8 7 8 9 9 10 10 10 10 10 9 10 10 10 11 11 11 11 10 10 10 10 9
-9 -9 -9 -8 -9 -8 -8 -8 -7 -6 -6 -5 -4 -3 -2 -0 1 2 5 6 7 7 7 7 8 8 9 9 10 10 10 10 10 10 10 10 10 11 11 10 10 10 10 10 9
Height
3158 3158 3159 3158 3160 3162 3162 3163 3164 3163 3163 3163 3163 3165 3168 3168 3171 3169 3170 3173 3173 3172 3171 3172 3173 3175 3176 3178 3178 3180 3182 3178 3179 3179 3178 3177 3175 3173 3171 3169 3167 3167 3167 3164 3162
3149 3149 3150 3151 3152 3153 3155 3155 3156 3156 3157 3157 3157 3158 3161 3161 3162 3164 3165 3166 3167 3166 3166 3169 3170 3172 3172 3175 3176 3176 3177 3176 3176 3176 3175 3174 3172 3172 3168 3166 3163 3164 3164 3162 3159
3142 3143 3144 3143 3143 3145 3146 3147 3148 3149 3150 3148 3147 3149 3151 3152 3154 3157 3159 3160 3160 3161 3163 3165 3166 3168 3169 3171 3172 3172 3172 3174 3173 3172 3171 3169 3168 3166 3165 3165 3162 3163 3160 3159 3157
3133 3134 3134 3133 3135 3137 3137 3138 3140 3141 3142 3141 3144 3144 3145 3145 3149 3147 3150 3152 3152 3155 3157 3157 3159 3162 3165 3167 3169 3169 3169 3170 3170 3170 3167 3166 3164 3163 3162 3163 3161 3157 3156 3155 3153
3125 3125 3126 3128 3129 3129 3129 3131 3133 3133 3132 3135 3138 3139 3139 3138 3140 3141 3142 3143 3144 3146 3148 3151 3153 3158 3161 3163 3166 3165 3166 3167 3167 3165 3164 3163 3161 3161 3160 3158 3156 3153 3152 3151 3150
3116 3117 3118 3118 3120 3122 3123 3125 3125 3125 3126 3129 3130 3129 3130 3131 3134 3134 3136 3138 3137 3140 3143 3146 3149 3155 3159 3160 3161 3163 3163 3162 3161 3161 3160 3159 3159 3157 3157 3154 3154 3151 3148 3147 3146
3108 3108 3108 3110 3113 3114 3115 3115 3116 3117 3119 3120 3121 3119 3119 3126 3128 3128 3128 3130 3132 3135 3138 3141 3147 3151 3154 3156 3157 3158 3158 3157 3155 3156 3156 3155 3156 3154 3154 3150 3149 3147 3145 3143 3142
3100 3101 3102 3103 3105 3105 3105 3106 3107 3108 3110 3112 3112 3111 3106 3118 3120 3122 3123 3124 3126 3129 3133 3136 3140 3146 3150 3152 3152 3153 3154 3152 3151 3151 3152 3152 3150 3149 3150 3146 3144 3141 3140 3138 3137
3092 3092 3092 3093 3094 3095 3098 3098 3098 3100 3102 3104 3104 3104 3101 3106 3111 3116 3116 3119 3122 3125 3129 3132 3136 3139 3145 3147 3149 3147 3146 3146 3148 3146 3146 3146 3146 3144 3144 3142 3138 3136 3134 3133 3133
3082 3082 3083 3084 3086 3087 3090 3089 3090 3091 3094 3095 3095 3100 3097 3100 3101 3106 3109 3113 3116 3121 3125 3127 3131 3135 3138 3140 3138 3141 3142 3142 3144 3144 3141 3141 3140 3138 3138 3137 3133 3131 3130 3130 3129
3071 3071 3072 3074 3078 3080 3083 3084 3086 3085 3082 3087 3086 3089 3092 3094 3095 3098 3102 3106 3109 3114 3117 3121 3126 3122 3127 3133 3136 3138 3139 3139 3139 3141 3139 3137 3134 3133 3133 3131 3129 3127 3126 3126 3125
3058 3058 3060 3062 3069 3072 3073 3074 3076 3077 3073 3076 3078 3077 3082 3088 3090 3093 3096 3099 3100 3103 3114 3119 3113 3120 3128 3131 3133 3134 3134 3134 3136 3137 3135 3133 3129 3128 3126 3124 3123 3122 3122 3122 3121
3044 3046 3049 3051 3058 3063 3063 3065 3069 3069 3065 3060 3066 3066 3077 3080 3082 3085 3089 3092 3094 3101 3105 3106 3110 3120 3122 3125 3129 3129 3129 3131 3132 3132 3131 3127 3123 3122 3121 3118 3117 3117 3117 3117 3117
3030 3033 3037 3039 3051 3052 3055 3058 3063 3064 3062 3052 3049 3050 3063 3068 3067 3077 3079 3087 3091 3094 3102 3105 3110 3113 3116 3120 3124 3123 3126 3128 3129 3130 3126 3125 3118 3118 3115 3114 3114 3113 3113 3113 3112
3019 3020 3023 3025 3030 3042 3046 3051 3058 3062 3061 3045 3039 3040 3048 3050 3062 3063 3071 3077 3084 3088 3098 3094 3102 3105 3109 3114 3118 3119 3123 3124 3125 3125 3124 3121 3118 3113 3111 3110 3110 3111 3110 3109 3108
3012 3011 3011 3013 3018 3032 3036 3045 3051 3061 3039 3031 3029 3031 3039 3042 3054 3056 3062 3072 3081 3087 3091 3094 3098 3102 3106 3111 3114 3118 3120 3121 3122 3121 3118 3114 3113 3109 3107 3108 3107 3108 3107 3106 3104
3004 3003 3003 3002 3007 3019 3027 3035 3047 3036 3024 3022 3022 3025 3031 3034 3046 3046 3050 3057 3062 3075 3079 3087 3089 3096 3101 3106 3109 3112 3115 3114 3113 3111 3109 3109 3111 3106 3105 3105 3105 3104 3104 3101 3099
2994 2994 2995 2996 3001 3012 3017 3024 3022 3001 3013 3015 3020 3023 3026 3030 3036 3040 3045 3050 3058 3064 3070 3076 3084 3085 3089 3096 3101 3105 3107 3105 3103 3104 3102 3107 3105 3101 3102 3101 3100 3099 3098 3096 3096
2984 2985 2987 2990 2994 3003 3007 3009 2983 2999 3009 3016 3018 3019 3021 3023 3028 3035 3036 3040 3046 3053 3059 3066 3072 3078 3085 3091 3096 3098 3100 3104 3102 3102 3105 3101 3101 3099 3100 3098 3097 3096 3094 3093 3095
2975 2977 2979 2984 2987 2993 2996 2985 2984 2996 3004 3007 3007 3011 3012 3015 3021 3024 3029 3031 3040 3047 3056 3060 3069 3073 3081 3087 3089 3091 3098 3099 3100 3098 3098 3095 3097 3095 3096 3096 3094 3093 3092 3093 3094
2968 2969 2973 2978 2981 2982 2979 2967 2983 2992 2997 3000 3001 3004 3006 3009 3011 3014 3016 3023 3029 3037 3049 3056 3063 3069 3075 3074 3079 3085 3087 3090 3093 3092 3091 3092 3091 3092 3094 3095 3094 3092 3091 3092 3094
2964 2965 2969 2971 2974 2972 2971 2969 2981 2984 2985 2991 2992 2994 2999 3003 3005 3009 3011 3016 3020 3030 3034 3043 3056 3059 3062 3068 3073 3076 3080 3084 3086 3090 3092 3090 3088 3090 3092 3092 3092 3091 3090 3091 3092
2959 2961 2964 2965 2964 2967 2967 2969 2978 2981 2983 2984 2988 2992 2994 2997 3001 3002 3007 3011 3016 3022 3028 3041 3046 3055 3060 3065 3066 3067 3074 3078 3082 3086 3084 3085 3087 3088 3089 3090 3090 3090 3089 3089 3090
2957 2957 2958 2959 2960 2965 2965 2967 2969 2973 2977 2979 2978 2979 2983 2988 2993 2996 3001 3006 3011 3017 3022 3031 3037 3037 3037 3047 3059 3063 3066 3071 3075 3078 3080 3080 3082 3083 3086 3087 3087 3088 3087 3088 3089
2952 2952 2953 2954 2956 2957 2961 2963 2964 2968 2973 2976 2974 2977 2981 2985 2988 2991 2996 3001 3006 3012 3018 3024 3027 3035 3040 3046 3050 3055 3059 3063 3066 3070 3073 3075 3077 3079 3082 3084 3085 3085 3085 3085 3087
2948 2949 2951 2952 2953 2955 2957 2954 2958 2963 2966 2968 2973 2974 2977 2978 2984 2988 2992 2995 2997 3005 3011 3016 3020 3029 3034 3040 3044 3048 3052 3056 3060 3063 3067 3070 3071 3076 3079 3080 3082 3082 3082 3083 3085
2947 2948 2948 2948 2950 2950 2950 2951 2953 2959 2961 2962 2968 2970 2973 2974 2971 2975 2978 2984 2989 2996 3002 3010 3015 3023 3026 3034 3041 3041 3039 3046 3053 3056 3060 3062 3068 3072 3074 3076 3078 3079 3079 3081 3082
Wind_Speed
43 40 42 37 35 32 29 30 30 27 24 23 23 28 31 30 31 26 21 24 22 20 21 23 20 19 19 18 17 14 17 20 17 16 17 15 14 16 14 16 21 18 15 15 13
40 41 42 38 35 32 28 30 30 32 29 28 26 27 30 32 32 31 23 28 30 27 25 25 24 21 22 19 15 16 19 19 17 15 17 17 19 15 19 16 19 15 15 13 13
34 33 34 33 33 33 31 30 31 33 34 30 29 30 34 33 32 33 33 29 36 28 24 26 27 27 21 19 19 16 22 17 17 16 19 19 17 12 11 12 12 12 14 13 13
35 34 35 35 36 37 39 33 31 29 28 26 30 28 32 31 25 35 34 38 39 31 28 32 33 29 23 24 19 19 19 19 17 14 11 10 9 7 10 11 14 11 10 10 11
33 34 34 35 36 35 32 33 35 32 30 30 33 31 30 31 30 25 21 28 31 28 31 35 34 30 24 20 19 20 19 18 17 13 9 8 7 10 13 14 11 9 6 8 12
35 36 38 37 36 35 35 36 36 33 34 36 33 31 31 32 24 26 30 27 23 19 27 32 31 26 21 23 21 18 14 17 16 12 13 6 10 11 9 10 12 12 11 10 16
35 36 37 37 37 37 38 39 38 38 37 35 33 33 35 28 21 18 22 32 31 26 24 29 28 24 24 18 19 18 19 17 14 12 12 9 12 10 12 12 14 15 14 14 15
38 39 39 38 36 36 36 36 37 36 35 34 33 35 42 29 28 25 22 25 30 28 27 30 31 24 21 18 14 16 18 20 16 12 13 9 14 14 15 19 18 20 18 13 15
40 39 38 38 37 37 35 35 34 33 32 31 32 33 40 35 29 25 25 25 25 30 27 28 29 27 20 23 21 22 23 21 17 13 13 11 18 15 18 22 20 22 18 12 15
42 43 41 38 36 36 35 37 36 34 34 33 35 30 32 15 20 30 26 29 28 32 28 29 29 27 28 28 28 22 16 17 18 14 13 16 20 21 20 21 20 18 10 11 14
45 44 44 41 37 36 34 35 36 38 40 37 33 26 27 15 25 18 30 32 33 34 32 30 32 38 36 29 23 20 18 18 17 15 15 19 23 24 23 22 19 12 12 13 15
49 48 46 44 38 36 35 35 35 37 41 39 38 41 35 24 24 28 24 34 40 38 30 26 38 35 28 25 24 22 21 22 19 16 17 21 25 26 25 21 18 15 16 17 18
48 48 48 47 41 36 37 35 31 32 38 46 40 42 32 34 31 30 30 32 38 36 36 35 30 28 28 26 24 25 23 21 18 17 20 21 24 20 15 14 17 16 16 19 19
40 43 45 47 43 38 36 34 28 26 22 31 38 45 40 38 40 33 31 34 29 37 35 33 25 29 29 28 26 27 21 20 18 18 19 10 23 19 16 14 16 19 13 13 17
25 27 37 42 43 34 34 30 23 17 8 11 26 26 27 46 25 36 36 34 30 30 37 36 32 30 28 28 25 24 19 18 17 18 17 19 13 16 12 10 9 10 10 11 15
31 27 23 36 39 30 28 23 23 13 15 12 18 22 29 36 29 15 42 31 30 27 32 31 27 27 26 21 20 16 15 14 14 16 16 19 14 15 6 6 7 7 10 14 15
32 31 27 25 30 28 29 28 20 24 21 19 19 22 29 33 36 32 43 45 37 36 36 34 31 27 24 23 21 21 17 15 12 12 12 5 9 16 11 9 9 8 11 13 12
29 31 30 27 24 29 37 34 25 41 41 9 18 22 31 26 35 34 32 45 41 36 30 35 36 34 27 31 23 24 24 18 10 11 12 8 8 5 5 4 5 6 10 12 10
29 28 29 21 18 30 38 37 48 44 24 36 12 26 28 31 20 35 38 46 47 42 30 38 34 31 33 31 28 21 25 22 21 19 11 18 8 10 2 6 7 7 7 7 16
24 25 25 21 16 32 36 50 41 31 15 25 43 28 34 33 24 36 35 37 45 45 36 18 32 24 30 27 29 29 20 17 19 13 13 11 9 9 3 4 1 4 6 13 13
20 24 20 19 19 37 47 61 41 28 13 13 30 40 33 31 34 38 28 19 43 43 40 27 21 31 24 34 33 29 29 25 21 22 12 9 7 4 3 2 2 2 6 12 12
17 21 17 20 27 43 42 54 41 15 22 27 15 29 31 31 34 34 34 32 26 38 49 47 24 23 32 28 31 31 31 30 21 20 18 16 15 3 4 4 5 3 5 10 14
21 22 20 18 30 39 38 40 35 31 18 11 22 18 32 31 27 36 28 23 21 37 38 41 31 27 21 21 27 36 33 30 30 23 23 15 16 8 4 5 7 3 1 10 17
16 15 22 27 30 23 35 25 29 32 35 22 18 21 21 33 31 24 28 26 23 30 27 41 31 42 37 35 30 30 32 32 33 32 26 26 21 14 11 9 9 5 6 9 19
14 16 16 7 31 25 22 26 17 26 32 19 12 19 14 26 34 26 27 24 26 30 31 33 39 34 36 31 27 31 32 34 36 35 30 24 22 20 14 11 10 9 8 13 16
13 16 14 27 16 11 20 31 29 25 19 38 23 13 13 16 23 33 27 26 30 29 35 32 27 29 28 34 29 28 31 32 35 36 32 26 23 15 14 13 12 12 9 12 14
11 14 14 9 20 11 15 15 24 24 26 22 36 18 17 11 17 21 27 30 28 33 33 35 30 24 33 29 29 34 36 35 34 35 33 34 27 21 18 17 15 11 10 13 14
Wind_Direction
254 261 264 269 265 264 263 266 272 279 279 277 260 249 247 243 245 237 247 256 254 245 244 241 236 233 234 239 241 243 253 259 266 275 281 294 299 293 310 289 306 306 302 292 314
252 258 262 266 267 265 264 267 271 274 278 278 275 256 248 247 244 247 239 245 251 247 241 239 241 237 239 234 236 236 252 256 267 271 283 287 288 286 297 298 319 313 301 305 321
254 257 260 265 268 266 264 269 266 266 272 279 279 276 268 258 255 250 242 243 252 247 236 239 236 230 233 226 229 242 250 259 268 277 287 287 281 279 286 291 294 290 289 309 317
253 256 259 262 265 264 263 266 266 262 260 263 265 265 260 251 251 250 243 237 244 250 237 235 230 231 227 231 234 245 258 265 260 279 297 304 298 297 296 301 293 299 297 303 312
260 259 258 256 254 257 261 261 260 261 264 264 261 260 260 254 241 245 242 239 242 239 240 235 227 228 226 231 233 250 261 259 261 277 265 294 312 299 305 295 300 316 301 305 297
265 264 262 262 262 261 259 256 258 261 259 258 259 259 258 258 256 242 236 228 227 233 230 228 228 226 234 232 238 251 258 254 258 262 267 268 281 324 308 311 312 321 318 300 295
260 261 262 262 260 260 260 260 259 258 259 261 260 259 257 254 250 243 233 233 232 243 236 226 214 215 220 232 242 244 256 258 248 246 249 270 276 299 301 309 317 317 316 312 303
264 261 259 257 257 258 258 258 258 258 259 260 259 257 257 252 240 239 233 232 223 227 227 220 212 218 220 220 228 245 252 249 244 245 245 263 271 278 289 307 304 311 311 301 298
267 265 264 263 262 260 259 258 257 256 256 254 254 256 262 256 243 234 229 224 225 219 224 220 214 211 215 221 240 240 248 242 245 244 239 253 273 276 292 302 291 304 300 292 292
265 265 264 263 263 262 262 261 260 256 252 251 252 252 252 250 236 226 225 215 220 212 217 217 208 206 214 218 230 236 237 245 249 243 248 263 278 286 285 289 284 303 291 285 289
262 260 261 261 260 261 260 260 259 260 253 250 253 253 247 246 234 221 216 213 213 211 209 210 201 208 215 221 231 245 244 250 249 254 267 275 283 285 284 281 269 288 280 289 298
265 264 262 258 256 257 256 256 256 258 263 253 249 249 242 240 233 221 211 210 209 205 202 204 213 217 219 226 231 232 244 251 257 261 275 288 282 287 291 271 255 271 264 279 291
261 260 260 261 255 253 254 254 256 261 267 263 251 251 239 240 232 223 213 208 212 205 205 209 221 215 219 219 223 234 242 249 256 273 285 288 284 300 291 265 244 263 271 274 286
263 257 256 255 255 249 248 248 254 260 273 264 264 255 237 230 234 218 219 213 207 210 210 217 216 208 212 219 226 236 240 246 255 272 283 289 293 298 290 267 261 268 271 272 282
304 279 252 250 248 246 247 241 236 242 267 246 233 233 226 223 229 216 209 205 206 203 205 214 209 209 211 220 226 235 237 246 256 267 281 272 264 299 294 290 265 251 260 280 286
291 289 284 248 244 231 230 225 205 190 236 224 221 211 204 208 207 206 206 203 207 206 212 213 213 214 217 221 222 225 228 242 253 260 256 266 263 283 281 294 286 254 266 283 270
284 279 274 268 239 210 205 188 181 220 222 220 200 194 198 201 196 203 194 197 194 193 208 212 215 215 214 217 217 211 215 230 226 224 252 230 259 264 279 287 283 269 274 286 258
286 269 267 261 245 208 185 181 213 228 215 212 196 196 194 188 201 199 195 200 202 201 201 201 210 208 206 208 201 206 212 229 232 246 255 190 261 252 274 275 281 267 261 263 234
276 268 256 243 236 203 190 197 217 220 230 216 204 197 197 198 197 198 206 206 205 200 199 200 210 213 214 209 208 209 217 227 249 261 272 272 252 274 264 309 294 269 257 219 173
261 258 252 231 237 195 202 211 221 216 235 221 220 206 202 197 194 195 198 216 210 206 202 207 209 206 208 208 215 218 219 211 223 243 241 247 242 255 268 348 292 265 212 176 177
246 250 248 225 215 207 207 216 223 211 231 233 223 222 220 205 204 200 205 207 203 205 202 201 194 206 204 206 206 205 216 219 237 227 233 248 260 186 205 341 352 213 172 177 181
243 244 244 223 208 214 221 222 220 230 239 244 243 222 219 215 210 205 211 210 196 198 197 200 201 188 209 213 211 217 217 213 220 214 236 266 260 252 252 235 50 10 193 190 193
245 256 236 227 214 219 229 231 235 235 250 242 235 221 217 219 217 212 212 206 196 190 200 194 212 207 205 206 207 216 217 219 222 234 239 228 236 201 216 251 279 347 320 203 201
257 245 234 231 227 229 231 244 243 233 247 264 244 222 211 213 209 213 209 203 193 192 194 192 203 206 206 210 204 210 217 218 218 223 231 235 246 232 241 246 247 306 272 219 206
248 244 219 243 238 221 222 232 247 240 235 236 241 234 226 217 213 212 203 200 195 198 195 193 207 215 221 217 212 215 216 215 217 221 229 235 236 235 234 241 243 269 248 212 208
249 255 248 236 276 242 244 244 243 248 241 233 243 238 239 224 219 211 206 199 192 190 194 197 211 211 215 216 217 217 220 218 220 221 229 232 241 233 235 238 235 268 243 215 212
273 261 266 239 238 236 310 252 242 241 239 238 229 237 236 227 219 196 189 194 190 192 188 196 204 207 218 214 219 229 218 217 222 226 227 232 236 236 242 240 231 264 260 220 206